Regional Weather Roundup
Issued by NWS Green Bay, WI

Home | Current Version | Previous Version | Graphics & Text | Print | Product List | Glossary Off
Versions: 1 2 3 4 5 6 7 8 9 10 11 12 13 14 15 16 17 18 19 20 21 22 23 24 25 26 27 28 29 30 31 32 33 34 35 36 37 38 39 40 41 42 43 44 45 46 47 48 49 50

000
ASUS43 KGRB 260310
RWRGRB

NORTH-CENTRAL AND NORTHEAST WISCONSIN REGIONAL WEATHER ROUNDUP
NATIONAL WEATHER SERVICE GREEN BAY WI
1000 PM CDT SAT OCT 25 2014

WIZ005-009-010>012-018-019-260400-
NORTH CENTRAL WISCONSIN

CITY           SKY/WX    TMP DP  RH WIND       PRES   REMARKS
IRONWOOD       CLEAR     45  28  53 W8        29.92S
MANITOWISH WTR CLEAR     45  27  48 NW8       29.93S
ARBOR VITAE    CLEAR     49  27  41 NW7       29.93S
EAGLE RIVER    CLEAR     46  24  41 NW9       29.91S
LAND O LAKES   CLEAR     47  26  43 NW6       29.92S
RHINELANDER    CLEAR     47  23  38 NW9       29.93R
PHILLIPS       CLEAR     47  25  42 NW7       29.96R
ANTIGO         CLEAR     46  25  43 NW9       29.93R
TOMAHAWK       CLEAR     43  22  43 CALM      29.95R
MERRILL        CLEAR     47  24  39 NW6       29.95R
$$

WIZ013-073-260400-
NORTHEAST WISCONSIN

CITY           SKY/WX    TMP DP  RH WIND       PRES   REMARKS
IRON MOUNTAIN  CLEAR     50  26  39 NW15G24   29.85R
MARINETTE      CLEAR     54  23  30 NW5       29.86S
OCONTO         CLEAR     53  24  33 NW7       29.89S
$$

WIZ017-030-035>037-045-260400-
CENTRAL WISCONSIN

CITY           SKY/WX    TMP DP  RH WIND       PRES   REMARKS
MEDFORD        CLEAR     45  25  44 NW7       29.96S
WAUSAU         CLEAR     48  28  46 NW9       29.94R
MOSINEE        CLEAR     48  25  40 MISG      29.96R
MARSHFIELD     CLEAR     45  27  49 W8        29.97R
WISC RAPIDS    CLEAR     48  27  44 W7        29.98R
STEVENS POINT  CLEAR     49  25  38 W7        29.96S
WAUPACA        CLEAR     52  27  38 W6        29.95R
SHAWANO        CLEAR     49  27  43 W5        29.93R
CLINTONVILLE   CLEAR     46  30  53 CALM      29.94R
$$

WIZ038-039-048-051-260400-
FOX VALLEY

CITY           SKY/WX    TMP DP  RH WIND       PRES   REMARKS
NWS GREEN BAY  CLEAR     50  32  50 W9        29.91R
APPLETON       CLEAR     45  30  57 W7        29.94R
OSHKOSH        CLEAR     51  30  44 W8        29.94R
FOND DU LAC    CLEAR     51  28  41 W12       29.95R
$$

WIZ022-050-052-260400-
EAST CENTRAL WISCONSIN

CITY           SKY/WX    TMP DP  RH WIND       PRES   REMARKS
STURGEON BAY   CLEAR     54  28  37 W10       29.89R
MANITOWOC      CLEAR     53  31  42 W13G20    29.90R
SHEBOYGAN      CLEAR     53  29  39 W9        29.93R
$$

LMZ563-521-522-541>543-260400-
LAKESHORE

STATION/POSITION TIME  TEMP    WIND        PRES    VSBY  WAVE
                       AIR SEA DIR/SP/G                  HT/PER
                 (UTC) (F)     (DEG/KT/KT) (MB)    (MI)  (FT/S)
SHEBOYGAN LKSHOR 0300   56 51  280/ 14/ 17 1013.3R
KEWAUNEE LKSHORE 0300   51     310/  5/ 10 1011.1R
ALGOMA MARINA    0200          310/  9/ 14   N/A
NORTHPORT PIER   0300   55     290/ 12/ 19 1010.5S
N MID LAKE BUOY  0300   54 51  300/ 19/ 23 1009.7R         3/ 5
SISTER BAY LKSHO 0300          310/ 15/ 18   N/A
CHAMBERS ISLAND  0300   54     300/  4/  9 1011.5R
MENOMINEE LKSHOR 0300   55     280/  9/ 19 1011.9S
$$



USA.gov is the U.S. government's official web portal to all federal, state and local government web resources and services.